<?xml version="1.0" encoding="UTF-8" standalone="no" ?>
<gpx xmlns="http://www.topografix.com/GPX/1/1" xmlns:xsi="http://www.w3.org/2001/XMLSchema-instance" xsi:schemaLocation="http://www.topografix.com/GPX/1/1 http://www.topografix.com/GPX/1/1/gpx.xsd" version="1.1" creator="VisuGPX - https://www.visugpx.com">
  <metadata>
    <name>14km_rando</name>
  </metadata>
  <trk>
    <name><![CDATA[14km rando 2026-23051169]]></name>
    <extensions>
      <line xmlns="http://www.topografix.com/GPX/gpx_style/0/2">
        <color>0000FF</color>
        <width>4</width>
      </line>
    </extensions>
    <trkseg>
      <trkpt lat="45.99875" lon="4.17625">
        <ele>436</ele>
        <time>2026-02-01T12:05:30Z</time>
      </trkpt>
      <trkpt lat="45.9985" lon="4.1761">
        <ele>436</ele>
        <time>2026-02-01T12:06:06Z</time>
      </trkpt>
      <trkpt lat="45.99824" lon="4.1759">
        <ele>436</ele>
        <time>2026-02-01T12:06:45Z</time>
      </trkpt>
      <trkpt lat="45.99792" lon="4.17569">
        <ele>436</ele>
        <time>2026-02-01T12:07:32Z</time>
      </trkpt>
      <trkpt lat="45.9972" lon="4.1753">
        <ele>435</ele>
        <time>2026-02-01T12:09:15Z</time>
      </trkpt>
      <trkpt lat="45.99608" lon="4.17473">
        <ele>429</ele>
        <time>2026-02-01T12:11:54Z</time>
      </trkpt>
      <trkpt lat="45.99598" lon="4.17466">
        <ele>428</ele>
        <time>2026-02-01T12:12:08Z</time>
      </trkpt>
      <trkpt lat="45.99595" lon="4.17464">
        <ele>428</ele>
        <time>2026-02-01T12:12:13Z</time>
      </trkpt>
      <trkpt lat="45.99584" lon="4.17451">
        <ele>428</ele>
        <time>2026-02-01T12:12:32Z</time>
      </trkpt>
      <trkpt lat="45.99575" lon="4.17434">
        <ele>427</ele>
        <time>2026-02-01T12:12:52Z</time>
      </trkpt>
      <trkpt lat="45.99554" lon="4.17374">
        <ele>427</ele>
        <time>2026-02-01T12:13:54Z</time>
      </trkpt>
      <trkpt lat="45.99543" lon="4.17342">
        <ele>427</ele>
        <time>2026-02-01T12:14:27Z</time>
      </trkpt>
      <trkpt lat="45.99536" lon="4.17324">
        <ele>427</ele>
        <time>2026-02-01T12:14:46Z</time>
      </trkpt>
      <trkpt lat="45.99528" lon="4.17324">
        <ele>426</ele>
        <time>2026-02-01T12:14:57Z</time>
      </trkpt>
      <trkpt lat="45.99508" lon="4.17303">
        <ele>425</ele>
        <time>2026-02-01T12:15:30Z</time>
      </trkpt>
      <trkpt lat="45.9947" lon="4.17264">
        <ele>421</ele>
        <time>2026-02-01T12:16:32Z</time>
      </trkpt>
      <trkpt lat="45.99445" lon="4.17238">
        <ele>418</ele>
        <time>2026-02-01T12:17:13Z</time>
      </trkpt>
      <trkpt lat="45.99436" lon="4.17227">
        <ele>417</ele>
        <time>2026-02-01T12:17:29Z</time>
      </trkpt>
      <trkpt lat="45.99408" lon="4.17178">
        <ele>416</ele>
        <time>2026-02-01T12:18:28Z</time>
      </trkpt>
      <trkpt lat="45.9932" lon="4.17028">
        <ele>411</ele>
        <time>2026-02-01T12:21:30Z</time>
      </trkpt>
      <trkpt lat="45.99315" lon="4.17012">
        <ele>412</ele>
        <time>2026-02-01T12:21:46Z</time>
      </trkpt>
      <trkpt lat="45.99303" lon="4.16902">
        <ele>411</ele>
        <time>2026-02-01T12:23:29Z</time>
      </trkpt>
      <trkpt lat="45.99302" lon="4.16899">
        <ele>411</ele>
        <time>2026-02-01T12:23:32Z</time>
      </trkpt>
      <trkpt lat="45.99301" lon="4.16883">
        <ele>410</ele>
        <time>2026-02-01T12:23:47Z</time>
      </trkpt>
      <trkpt lat="45.99282" lon="4.16762">
        <ele>405</ele>
        <time>2026-02-01T12:25:42Z</time>
      </trkpt>
      <trkpt lat="45.99257" lon="4.16591">
        <ele>397</ele>
        <time>2026-02-01T12:28:24Z</time>
      </trkpt>
      <trkpt lat="45.99251" lon="4.16562">
        <ele>396</ele>
        <time>2026-02-01T12:28:52Z</time>
      </trkpt>
      <trkpt lat="45.99239" lon="4.16536">
        <ele>395</ele>
        <time>2026-02-01T12:29:21Z</time>
      </trkpt>
      <trkpt lat="45.99223" lon="4.16512">
        <ele>394</ele>
        <time>2026-02-01T12:29:52Z</time>
      </trkpt>
      <trkpt lat="45.99203" lon="4.16496">
        <ele>393</ele>
        <time>2026-02-01T12:30:23Z</time>
      </trkpt>
      <trkpt lat="45.99194" lon="4.16492">
        <ele>393</ele>
        <time>2026-02-01T12:30:35Z</time>
      </trkpt>
      <trkpt lat="45.99191" lon="4.1649">
        <ele>393</ele>
        <time>2026-02-01T12:30:40Z</time>
      </trkpt>
      <trkpt lat="45.99194" lon="4.16492">
        <ele>393</ele>
        <time>2026-02-01T12:30:44Z</time>
      </trkpt>
      <trkpt lat="45.99204" lon="4.1649">
        <ele>393</ele>
        <time>2026-02-01T12:30:58Z</time>
      </trkpt>
      <trkpt lat="45.99264" lon="4.16499">
        <ele>393</ele>
        <time>2026-02-01T12:32:18Z</time>
      </trkpt>
      <trkpt lat="45.99305" lon="4.1652">
        <ele>393</ele>
        <time>2026-02-01T12:33:16Z</time>
      </trkpt>
      <trkpt lat="45.99336" lon="4.16543">
        <ele>394</ele>
        <time>2026-02-01T12:34:03Z</time>
      </trkpt>
      <trkpt lat="45.99373" lon="4.16555">
        <ele>397</ele>
        <time>2026-02-01T12:34:53Z</time>
      </trkpt>
      <trkpt lat="45.99415" lon="4.16539">
        <ele>398</ele>
        <time>2026-02-01T12:35:51Z</time>
      </trkpt>
      <trkpt lat="45.99455" lon="4.16511">
        <ele>398</ele>
        <time>2026-02-01T12:36:51Z</time>
      </trkpt>
      <trkpt lat="45.99471" lon="4.16508">
        <ele>398</ele>
        <time>2026-02-01T12:37:12Z</time>
      </trkpt>
      <trkpt lat="45.99492" lon="4.16507">
        <ele>399</ele>
        <time>2026-02-01T12:37:40Z</time>
      </trkpt>
      <trkpt lat="45.99501" lon="4.16507">
        <ele>400</ele>
        <time>2026-02-01T12:37:52Z</time>
      </trkpt>
      <trkpt lat="45.99502" lon="4.165">
        <ele>399</ele>
        <time>2026-02-01T12:37:59Z</time>
      </trkpt>
      <trkpt lat="45.99516" lon="4.16499">
        <ele>399</ele>
        <time>2026-02-01T12:38:18Z</time>
      </trkpt>
      <trkpt lat="45.99538" lon="4.1649">
        <ele>399</ele>
        <time>2026-02-01T12:38:48Z</time>
      </trkpt>
      <trkpt lat="45.99554" lon="4.16481">
        <ele>400</ele>
        <time>2026-02-01T12:39:11Z</time>
      </trkpt>
      <trkpt lat="45.9957" lon="4.1647">
        <ele>400</ele>
        <time>2026-02-01T12:39:35Z</time>
      </trkpt>
      <trkpt lat="45.9965" lon="4.16416">
        <ele>396</ele>
        <time>2026-02-01T12:41:33Z</time>
      </trkpt>
      <trkpt lat="45.99725" lon="4.16397">
        <ele>392</ele>
        <time>2026-02-01T12:43:14Z</time>
      </trkpt>
      <trkpt lat="45.99759" lon="4.16388">
        <ele>390</ele>
        <time>2026-02-01T12:44:00Z</time>
      </trkpt>
      <trkpt lat="45.99789" lon="4.16438">
        <ele>393</ele>
        <time>2026-02-01T12:45:02Z</time>
      </trkpt>
      <trkpt lat="45.99838" lon="4.16453">
        <ele>394</ele>
        <time>2026-02-01T12:46:08Z</time>
      </trkpt>
      <trkpt lat="45.99868" lon="4.16429">
        <ele>399</ele>
        <time>2026-02-01T12:46:54Z</time>
      </trkpt>
      <trkpt lat="45.99884" lon="4.16358">
        <ele>399</ele>
        <time>2026-02-01T12:48:03Z</time>
      </trkpt>
      <trkpt lat="45.99904" lon="4.16281">
        <ele>404</ele>
        <time>2026-02-01T12:49:20Z</time>
      </trkpt>
      <trkpt lat="45.99927" lon="4.16251">
        <ele>411</ele>
        <time>2026-02-01T12:50:01Z</time>
      </trkpt>
      <trkpt lat="45.99951" lon="4.16191">
        <ele>414</ele>
        <time>2026-02-01T12:51:05Z</time>
      </trkpt>
      <trkpt lat="45.99976" lon="4.1615">
        <ele>417</ele>
        <time>2026-02-01T12:51:56Z</time>
      </trkpt>
      <trkpt lat="46.00002" lon="4.1609">
        <ele>418</ele>
        <time>2026-02-01T12:53:01Z</time>
      </trkpt>
      <trkpt lat="46.00007" lon="4.16087">
        <ele>418</ele>
        <time>2026-02-01T12:53:09Z</time>
      </trkpt>
      <trkpt lat="46.00022" lon="4.16037">
        <ele>418</ele>
        <time>2026-02-01T12:53:59Z</time>
      </trkpt>
      <trkpt lat="46.00031" lon="4.15987">
        <ele>417</ele>
        <time>2026-02-01T12:54:47Z</time>
      </trkpt>
      <trkpt lat="46.0004" lon="4.15938">
        <ele>418</ele>
        <time>2026-02-01T12:55:34Z</time>
      </trkpt>
      <trkpt lat="46.00044" lon="4.15908">
        <ele>417</ele>
        <time>2026-02-01T12:56:02Z</time>
      </trkpt>
      <trkpt lat="46.0005" lon="4.15878">
        <ele>416</ele>
        <time>2026-02-01T12:56:31Z</time>
      </trkpt>
      <trkpt lat="46.00062" lon="4.15838">
        <ele>415</ele>
        <time>2026-02-01T12:57:12Z</time>
      </trkpt>
      <trkpt lat="46.00077" lon="4.158">
        <ele>414</ele>
        <time>2026-02-01T12:57:52Z</time>
      </trkpt>
      <trkpt lat="46.00129" lon="4.15709">
        <ele>413</ele>
        <time>2026-02-01T12:59:41Z</time>
      </trkpt>
      <trkpt lat="46.00153" lon="4.15671">
        <ele>413</ele>
        <time>2026-02-01T13:00:29Z</time>
      </trkpt>
      <trkpt lat="46.00167" lon="4.15635">
        <ele>412</ele>
        <time>2026-02-01T13:01:07Z</time>
      </trkpt>
      <trkpt lat="46.00173" lon="4.15624">
        <ele>412</ele>
        <time>2026-02-01T13:01:20Z</time>
      </trkpt>
      <trkpt lat="46.00191" lon="4.15603">
        <ele>413</ele>
        <time>2026-02-01T13:01:51Z</time>
      </trkpt>
      <trkpt lat="46.00216" lon="4.1558">
        <ele>414</ele>
        <time>2026-02-01T13:02:31Z</time>
      </trkpt>
      <trkpt lat="46.00273" lon="4.15552">
        <ele>417</ele>
        <time>2026-02-01T13:03:51Z</time>
      </trkpt>
      <trkpt lat="46.00547" lon="4.15406">
        <ele>407</ele>
        <time>2026-02-01T13:10:21Z</time>
      </trkpt>
      <trkpt lat="46.00547" lon="4.15382">
        <ele>406</ele>
        <time>2026-02-01T13:10:43Z</time>
      </trkpt>
      <trkpt lat="46.00536" lon="4.15358">
        <ele>405</ele>
        <time>2026-02-01T13:11:10Z</time>
      </trkpt>
      <trkpt lat="46.00534" lon="4.15336">
        <ele>404</ele>
        <time>2026-02-01T13:11:30Z</time>
      </trkpt>
      <trkpt lat="46.00545" lon="4.15296">
        <ele>405</ele>
        <time>2026-02-01T13:12:10Z</time>
      </trkpt>
      <trkpt lat="46.00565" lon="4.15226">
        <ele>406</ele>
        <time>2026-02-01T13:13:20Z</time>
      </trkpt>
      <trkpt lat="46.00384" lon="4.15073">
        <ele>405</ele>
        <time>2026-02-01T13:18:01Z</time>
      </trkpt>
      <trkpt lat="46.0034" lon="4.15018">
        <ele>403</ele>
        <time>2026-02-01T13:19:18Z</time>
      </trkpt>
      <trkpt lat="46.00296" lon="4.14938">
        <ele>398</ele>
        <time>2026-02-01T13:20:53Z</time>
      </trkpt>
      <trkpt lat="46.00293" lon="4.14945">
        <ele>398</ele>
        <time>2026-02-01T13:21:01Z</time>
      </trkpt>
      <trkpt lat="46.00286" lon="4.14939">
        <ele>398</ele>
        <time>2026-02-01T13:21:11Z</time>
      </trkpt>
      <trkpt lat="46.00253" lon="4.14911">
        <ele>397</ele>
        <time>2026-02-01T13:22:03Z</time>
      </trkpt>
      <trkpt lat="46.00209" lon="4.14871">
        <ele>397</ele>
        <time>2026-02-01T13:23:12Z</time>
      </trkpt>
      <trkpt lat="46.00201" lon="4.14867">
        <ele>396</ele>
        <time>2026-02-01T13:23:23Z</time>
      </trkpt>
      <trkpt lat="46.00184" lon="4.14863">
        <ele>396</ele>
        <time>2026-02-01T13:23:46Z</time>
      </trkpt>
      <trkpt lat="46.00177" lon="4.14863">
        <ele>396</ele>
        <time>2026-02-01T13:23:56Z</time>
      </trkpt>
      <trkpt lat="46.00154" lon="4.14867">
        <ele>395</ele>
        <time>2026-02-01T13:24:27Z</time>
      </trkpt>
      <trkpt lat="46.00142" lon="4.14866">
        <ele>394</ele>
        <time>2026-02-01T13:24:43Z</time>
      </trkpt>
      <trkpt lat="46.00122" lon="4.14858">
        <ele>394</ele>
        <time>2026-02-01T13:25:10Z</time>
      </trkpt>
      <trkpt lat="46.00116" lon="4.14853">
        <ele>394</ele>
        <time>2026-02-01T13:25:20Z</time>
      </trkpt>
      <trkpt lat="46.00109" lon="4.14843">
        <ele>394</ele>
        <time>2026-02-01T13:25:33Z</time>
      </trkpt>
      <trkpt lat="46.00103" lon="4.1483">
        <ele>394</ele>
        <time>2026-02-01T13:25:47Z</time>
      </trkpt>
      <trkpt lat="46.00084" lon="4.14778">
        <ele>395</ele>
        <time>2026-02-01T13:26:42Z</time>
      </trkpt>
      <trkpt lat="46.00062" lon="4.147">
        <ele>397</ele>
        <time>2026-02-01T13:28:00Z</time>
      </trkpt>
      <trkpt lat="46.00045" lon="4.14639">
        <ele>398</ele>
        <time>2026-02-01T13:29:01Z</time>
      </trkpt>
      <trkpt lat="46.00041" lon="4.14616">
        <ele>399</ele>
        <time>2026-02-01T13:29:23Z</time>
      </trkpt>
      <trkpt lat="46.00039" lon="4.14542">
        <ele>400</ele>
        <time>2026-02-01T13:30:31Z</time>
      </trkpt>
      <trkpt lat="46.00038" lon="4.14461">
        <ele>400</ele>
        <time>2026-02-01T13:31:46Z</time>
      </trkpt>
      <trkpt lat="46.00036" lon="4.14431">
        <ele>399</ele>
        <time>2026-02-01T13:32:14Z</time>
      </trkpt>
      <trkpt lat="46.00025" lon="4.14315">
        <ele>395</ele>
        <time>2026-02-01T13:34:03Z</time>
      </trkpt>
      <trkpt lat="46.00024" lon="4.14292">
        <ele>396</ele>
        <time>2026-02-01T13:34:24Z</time>
      </trkpt>
      <trkpt lat="46.00018" lon="4.14203">
        <ele>394</ele>
        <time>2026-02-01T13:35:47Z</time>
      </trkpt>
      <trkpt lat="46.00024" lon="4.14149">
        <ele>393</ele>
        <time>2026-02-01T13:36:38Z</time>
      </trkpt>
      <trkpt lat="46.0003" lon="4.14109">
        <ele>393</ele>
        <time>2026-02-01T13:37:16Z</time>
      </trkpt>
      <trkpt lat="46.00048" lon="4.14041">
        <ele>393</ele>
        <time>2026-02-01T13:38:23Z</time>
      </trkpt>
      <trkpt lat="46.00062" lon="4.13987">
        <ele>393</ele>
        <time>2026-02-01T13:39:17Z</time>
      </trkpt>
      <trkpt lat="46.00064" lon="4.1397">
        <ele>392</ele>
        <time>2026-02-01T13:39:33Z</time>
      </trkpt>
      <trkpt lat="46.00064" lon="4.13953">
        <ele>391</ele>
        <time>2026-02-01T13:39:48Z</time>
      </trkpt>
      <trkpt lat="46.00067" lon="4.13918">
        <ele>389</ele>
        <time>2026-02-01T13:40:21Z</time>
      </trkpt>
      <trkpt lat="46.00075" lon="4.13877">
        <ele>388</ele>
        <time>2026-02-01T13:41:00Z</time>
      </trkpt>
      <trkpt lat="46.00082" lon="4.13857">
        <ele>388</ele>
        <time>2026-02-01T13:41:21Z</time>
      </trkpt>
      <trkpt lat="46.00099" lon="4.13815">
        <ele>386</ele>
        <time>2026-02-01T13:42:06Z</time>
      </trkpt>
      <trkpt lat="46.00135" lon="4.13727">
        <ele>384</ele>
        <time>2026-02-01T13:43:41Z</time>
      </trkpt>
      <trkpt lat="46.00226" lon="4.13776">
        <ele>387</ele>
        <time>2026-02-01T13:45:51Z</time>
      </trkpt>
      <trkpt lat="46.00227" lon="4.13777">
        <ele>387</ele>
        <time>2026-02-01T13:45:52Z</time>
      </trkpt>
      <trkpt lat="46.00332" lon="4.13821">
        <ele>383</ele>
        <time>2026-02-01T13:48:18Z</time>
      </trkpt>
      <trkpt lat="46.00393" lon="4.13854">
        <ele>382</ele>
        <time>2026-02-01T13:49:45Z</time>
      </trkpt>
      <trkpt lat="46.00487" lon="4.13902">
        <ele>381</ele>
        <time>2026-02-01T13:51:58Z</time>
      </trkpt>
      <trkpt lat="46.00494" lon="4.13903">
        <ele>381</ele>
        <time>2026-02-01T13:52:08Z</time>
      </trkpt>
      <trkpt lat="46.00501" lon="4.13899">
        <ele>381</ele>
        <time>2026-02-01T13:52:18Z</time>
      </trkpt>
      <trkpt lat="46.00509" lon="4.1389">
        <ele>382</ele>
        <time>2026-02-01T13:52:31Z</time>
      </trkpt>
      <trkpt lat="46.00595" lon="4.13768">
        <ele>382</ele>
        <time>2026-02-01T13:55:12Z</time>
      </trkpt>
      <trkpt lat="46.00605" lon="4.13765">
        <ele>383</ele>
        <time>2026-02-01T13:55:26Z</time>
      </trkpt>
      <trkpt lat="46.00613" lon="4.13768">
        <ele>384</ele>
        <time>2026-02-01T13:55:37Z</time>
      </trkpt>
      <trkpt lat="46.00642" lon="4.13806">
        <ele>387</ele>
        <time>2026-02-01T13:56:29Z</time>
      </trkpt>
      <trkpt lat="46.00649" lon="4.13808">
        <ele>388</ele>
        <time>2026-02-01T13:56:39Z</time>
      </trkpt>
      <trkpt lat="46.00737" lon="4.13931">
        <ele>394</ele>
        <time>2026-02-01T13:59:22Z</time>
      </trkpt>
      <trkpt lat="46.00748" lon="4.13934">
        <ele>395</ele>
        <time>2026-02-01T13:59:37Z</time>
      </trkpt>
      <trkpt lat="46.00754" lon="4.13928">
        <ele>395</ele>
        <time>2026-02-01T13:59:47Z</time>
      </trkpt>
      <trkpt lat="46.00775" lon="4.13861">
        <ele>394</ele>
        <time>2026-02-01T14:00:55Z</time>
      </trkpt>
      <trkpt lat="46.00791" lon="4.13824">
        <ele>394</ele>
        <time>2026-02-01T14:01:36Z</time>
      </trkpt>
      <trkpt lat="46.00799" lon="4.13807">
        <ele>393</ele>
        <time>2026-02-01T14:01:55Z</time>
      </trkpt>
      <trkpt lat="46.00805" lon="4.13797">
        <ele>393</ele>
        <time>2026-02-01T14:02:07Z</time>
      </trkpt>
      <trkpt lat="46.0082" lon="4.13783">
        <ele>393</ele>
        <time>2026-02-01T14:02:31Z</time>
      </trkpt>
      <trkpt lat="46.00846" lon="4.13811">
        <ele>394</ele>
        <time>2026-02-01T14:03:14Z</time>
      </trkpt>
      <trkpt lat="46.00999" lon="4.14067">
        <ele>394</ele>
        <time>2026-02-01T14:08:27Z</time>
      </trkpt>
      <trkpt lat="46.01163" lon="4.14201">
        <ele>402</ele>
        <time>2026-02-01T14:12:39Z</time>
      </trkpt>
      <trkpt lat="46.01198" lon="4.14147">
        <ele>399</ele>
        <time>2026-02-01T14:13:47Z</time>
      </trkpt>
      <trkpt lat="46.0138" lon="4.14076">
        <ele>397</ele>
        <time>2026-02-01T14:17:59Z</time>
      </trkpt>
      <trkpt lat="46.01475" lon="4.14">
        <ele>398</ele>
        <time>2026-02-01T14:20:24Z</time>
      </trkpt>
      <trkpt lat="46.01527" lon="4.14073">
        <ele>398</ele>
        <time>2026-02-01T14:22:01Z</time>
      </trkpt>
      <trkpt lat="46.01555" lon="4.1403">
        <ele>398</ele>
        <time>2026-02-01T14:22:55Z</time>
      </trkpt>
      <trkpt lat="46.01582" lon="4.13987">
        <ele>398</ele>
        <time>2026-02-01T14:23:49Z</time>
      </trkpt>
      <trkpt lat="46.01595" lon="4.13963">
        <ele>396</ele>
        <time>2026-02-01T14:24:17Z</time>
      </trkpt>
      <trkpt lat="46.01624" lon="4.13916">
        <ele>392</ele>
        <time>2026-02-01T14:25:16Z</time>
      </trkpt>
      <trkpt lat="46.01668" lon="4.13861">
        <ele>390</ele>
        <time>2026-02-01T14:26:33Z</time>
      </trkpt>
      <trkpt lat="46.01676" lon="4.13847">
        <ele>389</ele>
        <time>2026-02-01T14:26:50Z</time>
      </trkpt>
      <trkpt lat="46.01685" lon="4.13837">
        <ele>389</ele>
        <time>2026-02-01T14:27:05Z</time>
      </trkpt>
      <trkpt lat="46.01709" lon="4.13853">
        <ele>388</ele>
        <time>2026-02-01T14:27:41Z</time>
      </trkpt>
      <trkpt lat="46.01746" lon="4.13872">
        <ele>386</ele>
        <time>2026-02-01T14:28:33Z</time>
      </trkpt>
      <trkpt lat="46.01771" lon="4.13892">
        <ele>385</ele>
        <time>2026-02-01T14:29:11Z</time>
      </trkpt>
      <trkpt lat="46.01809" lon="4.13898">
        <ele>385</ele>
        <time>2026-02-01T14:30:02Z</time>
      </trkpt>
      <trkpt lat="46.01828" lon="4.13909">
        <ele>385</ele>
        <time>2026-02-01T14:30:30Z</time>
      </trkpt>
      <trkpt lat="46.01873" lon="4.13903">
        <ele>383</ele>
        <time>2026-02-01T14:31:30Z</time>
      </trkpt>
      <trkpt lat="46.01888" lon="4.13899">
        <ele>382</ele>
        <time>2026-02-01T14:31:50Z</time>
      </trkpt>
      <trkpt lat="46.01923" lon="4.13887">
        <ele>380</ele>
        <time>2026-02-01T14:32:38Z</time>
      </trkpt>
      <trkpt lat="46.01898" lon="4.13932">
        <ele>381</ele>
        <time>2026-02-01T14:33:32Z</time>
      </trkpt>
      <trkpt lat="46.0187" lon="4.13983">
        <ele>381</ele>
        <time>2026-02-01T14:34:32Z</time>
      </trkpt>
      <trkpt lat="46.01855" lon="4.13993">
        <ele>382</ele>
        <time>2026-02-01T14:34:54Z</time>
      </trkpt>
      <trkpt lat="46.01812" lon="4.14052">
        <ele>383</ele>
        <time>2026-02-01T14:36:13Z</time>
      </trkpt>
      <trkpt lat="46.01735" lon="4.14125">
        <ele>387</ele>
        <time>2026-02-01T14:38:16Z</time>
      </trkpt>
      <trkpt lat="46.01712" lon="4.14152">
        <ele>388</ele>
        <time>2026-02-01T14:38:56Z</time>
      </trkpt>
      <trkpt lat="46.01694" lon="4.14213">
        <ele>391</ele>
        <time>2026-02-01T14:39:57Z</time>
      </trkpt>
      <trkpt lat="46.01683" lon="4.1424">
        <ele>392</ele>
        <time>2026-02-01T14:40:26Z</time>
      </trkpt>
      <trkpt lat="46.01676" lon="4.14257">
        <ele>392</ele>
        <time>2026-02-01T14:40:45Z</time>
      </trkpt>
      <trkpt lat="46.01651" lon="4.14308">
        <ele>395</ele>
        <time>2026-02-01T14:41:42Z</time>
      </trkpt>
      <trkpt lat="46.0163" lon="4.14344">
        <ele>397</ele>
        <time>2026-02-01T14:42:26Z</time>
      </trkpt>
      <trkpt lat="46.0161" lon="4.14368">
        <ele>398</ele>
        <time>2026-02-01T14:43:01Z</time>
      </trkpt>
      <trkpt lat="46.01579" lon="4.14395">
        <ele>400</ele>
        <time>2026-02-01T14:43:49Z</time>
      </trkpt>
      <trkpt lat="46.01573" lon="4.14403">
        <ele>400</ele>
        <time>2026-02-01T14:44:00Z</time>
      </trkpt>
      <trkpt lat="46.01567" lon="4.14413">
        <ele>400</ele>
        <time>2026-02-01T14:44:12Z</time>
      </trkpt>
      <trkpt lat="46.01546" lon="4.14442">
        <ele>399</ele>
        <time>2026-02-01T14:44:51Z</time>
      </trkpt>
      <trkpt lat="46.01541" lon="4.1444">
        <ele>399</ele>
        <time>2026-02-01T14:44:58Z</time>
      </trkpt>
      <trkpt lat="46.01508" lon="4.14438">
        <ele>399</ele>
        <time>2026-02-01T14:45:42Z</time>
      </trkpt>
      <trkpt lat="46.01476" lon="4.14433">
        <ele>399</ele>
        <time>2026-02-01T14:46:25Z</time>
      </trkpt>
      <trkpt lat="46.01468" lon="4.1443">
        <ele>399</ele>
        <time>2026-02-01T14:46:36Z</time>
      </trkpt>
      <trkpt lat="46.01445" lon="4.14416">
        <ele>400</ele>
        <time>2026-02-01T14:47:09Z</time>
      </trkpt>
      <trkpt lat="46.01401" lon="4.14376">
        <ele>401</ele>
        <time>2026-02-01T14:48:19Z</time>
      </trkpt>
      <trkpt lat="46.01322" lon="4.14305">
        <ele>400</ele>
        <time>2026-02-01T14:50:23Z</time>
      </trkpt>
      <trkpt lat="46.01301" lon="4.14289">
        <ele>400</ele>
        <time>2026-02-01T14:50:55Z</time>
      </trkpt>
      <trkpt lat="46.01279" lon="4.14278">
        <ele>399</ele>
        <time>2026-02-01T14:51:26Z</time>
      </trkpt>
      <trkpt lat="46.01248" lon="4.14265">
        <ele>398</ele>
        <time>2026-02-01T14:52:09Z</time>
      </trkpt>
      <trkpt lat="46.01255" lon="4.14291">
        <ele>399</ele>
        <time>2026-02-01T14:52:35Z</time>
      </trkpt>
      <trkpt lat="46.01272" lon="4.14374">
        <ele>401</ele>
        <time>2026-02-01T14:53:55Z</time>
      </trkpt>
      <trkpt lat="46.0131" lon="4.14473">
        <ele>402</ele>
        <time>2026-02-01T14:55:40Z</time>
      </trkpt>
      <trkpt lat="46.01312" lon="4.14489">
        <ele>401</ele>
        <time>2026-02-01T14:55:55Z</time>
      </trkpt>
      <trkpt lat="46.01314" lon="4.14511">
        <ele>401</ele>
        <time>2026-02-01T14:56:16Z</time>
      </trkpt>
      <trkpt lat="46.01311" lon="4.14531">
        <ele>401</ele>
        <time>2026-02-01T14:56:34Z</time>
      </trkpt>
      <trkpt lat="46.01307" lon="4.14552">
        <ele>401</ele>
        <time>2026-02-01T14:56:55Z</time>
      </trkpt>
      <trkpt lat="46.01305" lon="4.14578">
        <ele>400</ele>
        <time>2026-02-01T14:57:19Z</time>
      </trkpt>
      <trkpt lat="46.01308" lon="4.14595">
        <ele>400</ele>
        <time>2026-02-01T14:57:35Z</time>
      </trkpt>
      <trkpt lat="46.01353" lon="4.14761">
        <ele>403</ele>
        <time>2026-02-01T15:00:20Z</time>
      </trkpt>
      <trkpt lat="46.0137" lon="4.14791">
        <ele>404</ele>
        <time>2026-02-01T15:00:56Z</time>
      </trkpt>
      <trkpt lat="46.01388" lon="4.14816">
        <ele>405</ele>
        <time>2026-02-01T15:01:30Z</time>
      </trkpt>
      <trkpt lat="46.01403" lon="4.14843">
        <ele>406</ele>
        <time>2026-02-01T15:02:02Z</time>
      </trkpt>
      <trkpt lat="46.01413" lon="4.14862">
        <ele>406</ele>
        <time>2026-02-01T15:02:24Z</time>
      </trkpt>
      <trkpt lat="46.01427" lon="4.14895">
        <ele>405</ele>
        <time>2026-02-01T15:03:00Z</time>
      </trkpt>
      <trkpt lat="46.01444" lon="4.14919">
        <ele>405</ele>
        <time>2026-02-01T15:03:31Z</time>
      </trkpt>
      <trkpt lat="46.01462" lon="4.14935">
        <ele>405</ele>
        <time>2026-02-01T15:04:00Z</time>
      </trkpt>
      <trkpt lat="46.01479" lon="4.14943">
        <ele>406</ele>
        <time>2026-02-01T15:04:23Z</time>
      </trkpt>
      <trkpt lat="46.01504" lon="4.14948">
        <ele>405</ele>
        <time>2026-02-01T15:04:57Z</time>
      </trkpt>
      <trkpt lat="46.01546" lon="4.14952">
        <ele>402</ele>
        <time>2026-02-01T15:05:53Z</time>
      </trkpt>
      <trkpt lat="46.01554" lon="4.14967">
        <ele>402</ele>
        <time>2026-02-01T15:06:11Z</time>
      </trkpt>
      <trkpt lat="46.01609" lon="4.15152">
        <ele>392</ele>
        <time>2026-02-01T15:09:17Z</time>
      </trkpt>
      <trkpt lat="46.01611" lon="4.15168">
        <ele>391</ele>
        <time>2026-02-01T15:09:32Z</time>
      </trkpt>
      <trkpt lat="46.01573" lon="4.1531">
        <ele>396</ele>
        <time>2026-02-01T15:11:53Z</time>
      </trkpt>
      <trkpt lat="46.0153" lon="4.15478">
        <ele>403</ele>
        <time>2026-02-01T15:14:39Z</time>
      </trkpt>
      <trkpt lat="46.01504" lon="4.15551">
        <ele>406</ele>
        <time>2026-02-01T15:15:55Z</time>
      </trkpt>
      <trkpt lat="46.016" lon="4.15549">
        <ele>396</ele>
        <time>2026-02-01T15:18:03Z</time>
      </trkpt>
      <trkpt lat="46.01649" lon="4.15551">
        <ele>387</ele>
        <time>2026-02-01T15:19:09Z</time>
      </trkpt>
      <trkpt lat="46.01669" lon="4.15807">
        <ele>383</ele>
        <time>2026-02-01T15:23:08Z</time>
      </trkpt>
      <trkpt lat="46.01686" lon="4.15837">
        <ele>380</ele>
        <time>2026-02-01T15:23:43Z</time>
      </trkpt>
      <trkpt lat="46.0168" lon="4.15878">
        <ele>378</ele>
        <time>2026-02-01T15:24:22Z</time>
      </trkpt>
      <trkpt lat="46.01658" lon="4.15946">
        <ele>376</ele>
        <time>2026-02-01T15:25:32Z</time>
      </trkpt>
      <trkpt lat="46.01635" lon="4.16002">
        <ele>374</ele>
        <time>2026-02-01T15:26:32Z</time>
      </trkpt>
      <trkpt lat="46.01613" lon="4.16055">
        <ele>377</ele>
        <time>2026-02-01T15:27:29Z</time>
      </trkpt>
      <trkpt lat="46.01632" lon="4.16081">
        <ele>376</ele>
        <time>2026-02-01T15:28:04Z</time>
      </trkpt>
      <trkpt lat="46.01652" lon="4.16096">
        <ele>376</ele>
        <time>2026-02-01T15:28:34Z</time>
      </trkpt>
      <trkpt lat="46.017" lon="4.16098">
        <ele>382</ele>
        <time>2026-02-01T15:29:38Z</time>
      </trkpt>
      <trkpt lat="46.01762" lon="4.16087">
        <ele>388</ele>
        <time>2026-02-01T15:31:02Z</time>
      </trkpt>
      <trkpt lat="46.01822" lon="4.16053">
        <ele>379</ele>
        <time>2026-02-01T15:32:28Z</time>
      </trkpt>
      <trkpt lat="46.01831" lon="4.16087">
        <ele>384</ele>
        <time>2026-02-01T15:33:02Z</time>
      </trkpt>
      <trkpt lat="46.01782" lon="4.16147">
        <ele>393</ele>
        <time>2026-02-01T15:34:27Z</time>
      </trkpt>
      <trkpt lat="46.01726" lon="4.16277">
        <ele>401</ele>
        <time>2026-02-01T15:36:49Z</time>
      </trkpt>
      <trkpt lat="46.01693" lon="4.1637">
        <ele>405</ele>
        <time>2026-02-01T15:38:26Z</time>
      </trkpt>
      <trkpt lat="46.0169" lon="4.16378">
        <ele>405</ele>
        <time>2026-02-01T15:38:34Z</time>
      </trkpt>
      <trkpt lat="46.01635" lon="4.16488">
        <ele>410</ele>
        <time>2026-02-01T15:40:40Z</time>
      </trkpt>
      <trkpt lat="46.01618" lon="4.16519">
        <ele>411</ele>
        <time>2026-02-01T15:41:17Z</time>
      </trkpt>
      <trkpt lat="46.01575" lon="4.16568">
        <ele>413</ele>
        <time>2026-02-01T15:42:30Z</time>
      </trkpt>
      <trkpt lat="46.01531" lon="4.16622">
        <ele>414</ele>
        <time>2026-02-01T15:43:47Z</time>
      </trkpt>
      <trkpt lat="46.01509" lon="4.16655">
        <ele>416</ele>
        <time>2026-02-01T15:44:29Z</time>
      </trkpt>
      <trkpt lat="46.01417" lon="4.16832">
        <ele>420</ele>
        <time>2026-02-01T15:47:54Z</time>
      </trkpt>
      <trkpt lat="46.01396" lon="4.1687">
        <ele>421</ele>
        <time>2026-02-01T15:48:39Z</time>
      </trkpt>
      <trkpt lat="46.01376" lon="4.16904">
        <ele>422</ele>
        <time>2026-02-01T15:49:21Z</time>
      </trkpt>
      <trkpt lat="46.01352" lon="4.1692">
        <ele>423</ele>
        <time>2026-02-01T15:49:56Z</time>
      </trkpt>
      <trkpt lat="46.01342" lon="4.1693">
        <ele>424</ele>
        <time>2026-02-01T15:50:12Z</time>
      </trkpt>
      <trkpt lat="46.01333" lon="4.1695">
        <ele>425</ele>
        <time>2026-02-01T15:50:34Z</time>
      </trkpt>
      <trkpt lat="46.01333" lon="4.16954">
        <ele>425</ele>
        <time>2026-02-01T15:50:38Z</time>
      </trkpt>
      <trkpt lat="46.0127" lon="4.16952">
        <ele>425</ele>
        <time>2026-02-01T15:52:02Z</time>
      </trkpt>
      <trkpt lat="46.01223" lon="4.16954">
        <ele>423</ele>
        <time>2026-02-01T15:53:05Z</time>
      </trkpt>
      <trkpt lat="46.01186" lon="4.16979">
        <ele>422</ele>
        <time>2026-02-01T15:53:59Z</time>
      </trkpt>
      <trkpt lat="46.01113" lon="4.16971">
        <ele>418</ele>
        <time>2026-02-01T15:55:37Z</time>
      </trkpt>
      <trkpt lat="46.01089" lon="4.16978">
        <ele>417</ele>
        <time>2026-02-01T15:56:10Z</time>
      </trkpt>
      <trkpt lat="46.01069" lon="4.17012">
        <ele>418</ele>
        <time>2026-02-01T15:56:51Z</time>
      </trkpt>
      <trkpt lat="46.01054" lon="4.17015">
        <ele>419</ele>
        <time>2026-02-01T15:57:11Z</time>
      </trkpt>
      <trkpt lat="46.01044" lon="4.17018">
        <ele>419</ele>
        <time>2026-02-01T15:57:25Z</time>
      </trkpt>
      <trkpt lat="46.01028" lon="4.17003">
        <ele>420</ele>
        <time>2026-02-01T15:57:50Z</time>
      </trkpt>
      <trkpt lat="46.00901" lon="4.16926">
        <ele>429</ele>
        <time>2026-02-01T16:00:54Z</time>
      </trkpt>
      <trkpt lat="46.00873" lon="4.17042">
        <ele>430</ele>
        <time>2026-02-01T16:02:48Z</time>
      </trkpt>
      <trkpt lat="46.0065" lon="4.17031">
        <ele>434</ele>
        <time>2026-02-01T16:07:46Z</time>
      </trkpt>
      <trkpt lat="46.00485" lon="4.16935">
        <ele>436</ele>
        <time>2026-02-01T16:11:43Z</time>
      </trkpt>
      <trkpt lat="46.0045" lon="4.16928">
        <ele>436</ele>
        <time>2026-02-01T16:12:30Z</time>
      </trkpt>
      <trkpt lat="46.0038" lon="4.1694">
        <ele>435</ele>
        <time>2026-02-01T16:14:04Z</time>
      </trkpt>
      <trkpt lat="46.00319" lon="4.16914">
        <ele>433</ele>
        <time>2026-02-01T16:15:29Z</time>
      </trkpt>
      <trkpt lat="46.00309" lon="4.17028">
        <ele>433</ele>
        <time>2026-02-01T16:17:16Z</time>
      </trkpt>
      <trkpt lat="46.00263" lon="4.17019">
        <ele>431</ele>
        <time>2026-02-01T16:18:18Z</time>
      </trkpt>
      <trkpt lat="46.00089" lon="4.16934">
        <ele>418</ele>
        <time>2026-02-01T16:22:23Z</time>
      </trkpt>
      <trkpt lat="46.00088" lon="4.16937">
        <ele>418</ele>
        <time>2026-02-01T16:22:26Z</time>
      </trkpt>
      <trkpt lat="46.00079" lon="4.16934">
        <ele>417</ele>
        <time>2026-02-01T16:22:38Z</time>
      </trkpt>
      <trkpt lat="46.00008" lon="4.16892">
        <ele>409</ele>
        <time>2026-02-01T16:24:21Z</time>
      </trkpt>
      <trkpt lat="45.9997" lon="4.16872">
        <ele>408</ele>
        <time>2026-02-01T16:25:15Z</time>
      </trkpt>
      <trkpt lat="45.99947" lon="4.16866">
        <ele>407</ele>
        <time>2026-02-01T16:25:46Z</time>
      </trkpt>
      <trkpt lat="45.9993" lon="4.16865">
        <ele>406</ele>
        <time>2026-02-01T16:26:09Z</time>
      </trkpt>
      <trkpt lat="45.99918" lon="4.16866">
        <ele>406</ele>
        <time>2026-02-01T16:26:25Z</time>
      </trkpt>
      <trkpt lat="45.99894" lon="4.16872">
        <ele>407</ele>
        <time>2026-02-01T16:26:57Z</time>
      </trkpt>
      <trkpt lat="45.99888" lon="4.16872">
        <ele>408</ele>
        <time>2026-02-01T16:27:05Z</time>
      </trkpt>
      <trkpt lat="45.99871" lon="4.16848">
        <ele>408</ele>
        <time>2026-02-01T16:27:37Z</time>
      </trkpt>
      <trkpt lat="45.99855" lon="4.16832">
        <ele>409</ele>
        <time>2026-02-01T16:28:03Z</time>
      </trkpt>
      <trkpt lat="45.99844" lon="4.16825">
        <ele>409</ele>
        <time>2026-02-01T16:28:19Z</time>
      </trkpt>
      <trkpt lat="45.99811" lon="4.16818">
        <ele>410</ele>
        <time>2026-02-01T16:29:04Z</time>
      </trkpt>
      <trkpt lat="45.99773" lon="4.16807">
        <ele>412</ele>
        <time>2026-02-01T16:29:55Z</time>
      </trkpt>
      <trkpt lat="45.99751" lon="4.16803">
        <ele>414</ele>
        <time>2026-02-01T16:30:25Z</time>
      </trkpt>
      <trkpt lat="45.99734" lon="4.16804">
        <ele>415</ele>
        <time>2026-02-01T16:30:48Z</time>
      </trkpt>
      <trkpt lat="45.9972" lon="4.1681">
        <ele>416</ele>
        <time>2026-02-01T16:31:07Z</time>
      </trkpt>
      <trkpt lat="45.99708" lon="4.16822">
        <ele>417</ele>
        <time>2026-02-01T16:31:27Z</time>
      </trkpt>
      <trkpt lat="45.99672" lon="4.16866">
        <ele>422</ele>
        <time>2026-02-01T16:32:30Z</time>
      </trkpt>
      <trkpt lat="45.99657" lon="4.16884">
        <ele>424</ele>
        <time>2026-02-01T16:32:56Z</time>
      </trkpt>
      <trkpt lat="45.99631" lon="4.16905">
        <ele>425</ele>
        <time>2026-02-01T16:33:36Z</time>
      </trkpt>
      <trkpt lat="45.99628" lon="4.16948">
        <ele>426</ele>
        <time>2026-02-01T16:34:16Z</time>
      </trkpt>
      <trkpt lat="45.99614" lon="4.17046">
        <ele>427</ele>
        <time>2026-02-01T16:35:48Z</time>
      </trkpt>
      <trkpt lat="45.99627" lon="4.17082">
        <ele>428</ele>
        <time>2026-02-01T16:36:26Z</time>
      </trkpt>
      <trkpt lat="45.99648" lon="4.17137">
        <ele>429</ele>
        <time>2026-02-01T16:37:24Z</time>
      </trkpt>
      <trkpt lat="45.99656" lon="4.17188">
        <ele>429</ele>
        <time>2026-02-01T16:38:13Z</time>
      </trkpt>
      <trkpt lat="45.99664" lon="4.17206">
        <ele>430</ele>
        <time>2026-02-01T16:38:32Z</time>
      </trkpt>
      <trkpt lat="45.99668" lon="4.1722">
        <ele>430</ele>
        <time>2026-02-01T16:38:46Z</time>
      </trkpt>
      <trkpt lat="45.9967" lon="4.17227">
        <ele>430</ele>
        <time>2026-02-01T16:38:53Z</time>
      </trkpt>
      <trkpt lat="45.99672" lon="4.17241">
        <ele>430</ele>
        <time>2026-02-01T16:39:07Z</time>
      </trkpt>
      <trkpt lat="45.99674" lon="4.17274">
        <ele>431</ele>
        <time>2026-02-01T16:39:37Z</time>
      </trkpt>
      <trkpt lat="45.99674" lon="4.17334">
        <ele>432</ele>
        <time>2026-02-01T16:40:33Z</time>
      </trkpt>
      <trkpt lat="45.99676" lon="4.17344">
        <ele>432</ele>
        <time>2026-02-01T16:40:43Z</time>
      </trkpt>
      <trkpt lat="45.99688" lon="4.17363">
        <ele>432</ele>
        <time>2026-02-01T16:41:06Z</time>
      </trkpt>
      <trkpt lat="45.99701" lon="4.17378">
        <ele>432</ele>
        <time>2026-02-01T16:41:29Z</time>
      </trkpt>
      <trkpt lat="45.99748" lon="4.17414">
        <ele>432</ele>
        <time>2026-02-01T16:42:40Z</time>
      </trkpt>
      <trkpt lat="45.99796" lon="4.17466">
        <ele>432</ele>
        <time>2026-02-01T16:44:00Z</time>
      </trkpt>
      <trkpt lat="45.99799" lon="4.17492">
        <ele>433</ele>
        <time>2026-02-01T16:44:24Z</time>
      </trkpt>
      <trkpt lat="45.99805" lon="4.1751">
        <ele>433</ele>
        <time>2026-02-01T16:44:43Z</time>
      </trkpt>
      <trkpt lat="45.99857" lon="4.17499">
        <ele>431</ele>
        <time>2026-02-01T16:45:53Z</time>
      </trkpt>
      <trkpt lat="45.9986" lon="4.17519">
        <ele>432</ele>
        <time>2026-02-01T16:46:12Z</time>
      </trkpt>
      <trkpt lat="45.99864" lon="4.17533">
        <ele>433</ele>
        <time>2026-02-01T16:46:26Z</time>
      </trkpt>
      <trkpt lat="45.99869" lon="4.17539">
        <ele>433</ele>
        <time>2026-02-01T16:46:35Z</time>
      </trkpt>
      <trkpt lat="45.99881" lon="4.17544">
        <ele>433</ele>
        <time>2026-02-01T16:46:51Z</time>
      </trkpt>
      <trkpt lat="45.99899" lon="4.17552">
        <ele>432</ele>
        <time>2026-02-01T16:47:17Z</time>
      </trkpt>
      <trkpt lat="45.99904" lon="4.17561">
        <ele>433</ele>
        <time>2026-02-01T16:47:27Z</time>
      </trkpt>
      <trkpt lat="45.99902" lon="4.17608">
        <ele>434</ele>
        <time>2026-02-01T16:48:11Z</time>
      </trkpt>
      <trkpt lat="45.99904" lon="4.17624">
        <ele>435</ele>
        <time>2026-02-01T16:48:26Z</time>
      </trkpt>
      <trkpt lat="45.99907" lon="4.17628">
        <ele>435</ele>
        <time>2026-02-01T16:48:31Z</time>
      </trkpt>
      <trkpt lat="45.99919" lon="4.17637">
        <ele>435</ele>
        <time>2026-02-01T16:48:49Z</time>
      </trkpt>
      <trkpt lat="45.99924" lon="4.17643">
        <ele>436</ele>
        <time>2026-02-01T16:48:58Z</time>
      </trkpt>
      <trkpt lat="45.99907" lon="4.17643">
        <ele>435</ele>
        <time>2026-02-01T16:49:21Z</time>
      </trkpt>
      <trkpt lat="45.99867" lon="4.1762">
        <ele>436</ele>
        <time>2026-02-01T16:50:18Z</time>
      </trkpt>
    </trkseg>
  </trk>
</gpx>